GW1931 Weather Reports


time (UTC)temp
C
wind
direction
speed
KPH
gust
KPH
rain 1hr
cm
rain 24hr
cm
rain mn
cm
humidity
%
barometer
mb
20260505165114 26 107 1.6 9.7 0.00 0.00 0.00 86
20260505162109 26 115 4.8 9.7 0.00 0.00 0.00 88
20260505152104 25 88 1.6 12.9 0.00 0.00 0.00 90
20260505122050 21 93 0.0 3.2 0.00 0.00 0.00 98
20260505115045 21 127 0.0 0.0 0.00 0.00 0.00 98
20260505112044 21 130 1.6 3.2 0.00 0.00 0.00 97
20260505102038 21 136 1.6 4.8 0.00 0.00 0.00 97
20260505095037 20 99 1.6 3.2 0.00 0.00 0.00 97
20260505092037 20 139 0.0 1.6 0.00 0.00 0.00 97
20260505085033 20 135 0.0 1.6 0.00 0.00 0.00 96
20260505082032 21 116 0.0 1.6 0.00 0.00 0.00 94
20260505075029 21 132 0.0 1.6 0.00 0.00 0.00 93
20260505072029 21 131 1.6 3.2 0.00 0.00 0.00 93
20260505065025 21 143 0.0 1.6 0.00 0.00 0.00 92
20260505062025 21 123 0.0 1.6 0.00 0.00 0.00 92
20260505055024 21 131 0.0 1.6 0.00 0.00 0.00 91
20260505052019 21 143 1.6 4.8 0.00 0.00 0.00 90
20260505035010 22 65 4.8 4.8 0.00 0.00 0.00 85
20260505032010 22 107 0.0 4.8 0.00 0.00 0.00 84
20260505025009 22 162 3.2 3.2 0.00 0.00 0.00 82
20260505022009 23 159 1.6 1.6 0.00 0.00 0.00 81
20260505015005 23 125 0.0 3.2 0.00 0.00 0.00 82
20260505012000 23 144 0.0 1.6 0.00 0.00 0.00 81
20260505004957 23 161 0.0 1.6 0.00 0.00 0.00 77
20260505001956 25 87 3.2 8.0 0.00 0.00 0.00 75
20260504234956 25 136 1.6 1.6 0.00 0.00 0.00 72
20260504231954 26 124 1.6 4.8 0.00 0.00 0.00 69
20260504224953 26 147 1.6 3.2 0.00 0.00 0.00 66
20260504221952 27 153 0.0 4.8 0.00 0.00 0.00 64
20260504214950 27 149 1.6 3.2 0.00 0.00 0.00 62
20260504211947 28 147 0.0 4.8 0.00 0.00 0.00 60
20260504204942 27 109 3.2 3.2 0.00 0.00 0.00 60
20260504201937 28 162 3.2 8.0 0.00 0.00 0.00 60
20260504194936 27 136 3.2 4.8 0.00 0.00 0.00 61
20260504191931 28 192 8.0 12.9 0.00 0.00 0.00 59
20260504184927 27 23 4.8 12.9 0.00 0.00 0.00 60
20260504181926 27 174 3.2 4.8 0.00 0.00 0.00 59
20260504174924 26 198 3.2 9.7 0.00 0.00 0.00 61